Regional Weather Roundup
Issued by NWS

Home | Current Version | Previous Version | Text Only | Print | Product List | Glossary On
Versions: 1 2 3 4 5 6 7 8 9 10 11 12 13 14 15 16 17 18 19 20 21 22 23 24 25 26 27 28 29 30 31 32 33 34 35 36 37 38 39 40 41 42 43 44 45 46 47 48 49 50
000
ASUS44 KMEG 190010
RWRTN
TENNESSEE HOURLY STATE WEATHER ROUNDUP
NATIONAL WEATHER SERVICE MEMPHIS TN
700 PM CDT SAT APR 18 2015

TNZ002-004-019-021-049-052-054-088>092-190100-
WEST TENNESSEE

CITY           SKY/WX    TMP DP  RH WIND       PRES   REMARKS
MEMPHIS INTL   CLOUDY    70  61  73 S6        29.85S
NWS MEMPHIS      N/A     70 N/A N/A MISG        N/A
JACKSON        CLOUDY    73  60  63 S3        29.84F
DYERSBURG      CLOUDY    73  55  53 CALM      29.85F
UNION CITY     CLEAR     75  32  20 CALM      29.84S
PARIS          CLEAR     72  59  64 E3        29.85F
LEXINGTON      PTCLDY    73  63  68 CALM      29.85F
SAVANNAH       PTCLDY    72  32  23 S3        29.86F
$$

TNZ008-025-027-028-033-062-065-066-190100-
NORTH MIDDLE TENNESSEE

CITY           SKY/WX    TMP DP  RH WIND       PRES   REMARKS
NASHVILLE      LGT RAIN  67  62  84 NE3       29.91R
CLARKSVILLE    CLOUDY    74  60  61 E5        29.87F
SMYRNA         CLOUDY    67  65  93 CALM      29.91S
COOKEVILLE     CLOUDY    73  64  73 CALM      29.89S
CROSSVILLE     CLOUDY    68  58  70 S5        29.96R
$$

TNZ061-075-076-078-094-096-097-190100-
SOUTH MIDDLE TENNESSEE

CITY           SKY/WX    TMP DP  RH WIND       PRES   REMARKS
FAYETTEVILLE     N/A     72  61  68 S5        29.90F
TULLAHOMA      CLEAR     72  57  60 CALM      29.92S
WINCHESTER     PTCLDY    72  61  68 SE5       29.92S
MCMINNVILLE    MOCLDY    72  63  73 NW13      29.91S SQUALL
COLUMBIA       CLEAR     72  32  23 SE3       29.86F
SHELBYVILLE    PTCLDY    70  66  88 CALM      29.91S
$$

TNZ017-018-042-046-047-190100-
NORTHEAST TENNESSEE

CITY           SKY/WX    TMP DP  RH WIND       PRES   REMARKS
TRI CITIES     LGT RAIN  67  59  75 E5        29.95F
ELIZABETHTON   PTCLDY    64  59  82 E6        29.97F
$$

TNZ012-013-036-069-073-074-190100-
CENTRAL EAST TENNESSEE

CITY           SKY/WX    TMP DP  RH WIND       PRES   REMARKS
KNOXVILLE      CLOUDY    68  64  87 S6        29.93R
OAK RIDGE      CLOUDY    73  61  65 VRB3      29.94R
GATLINBURG     MOCLDY    64  63  94 CALM      29.92S
MORRISTOWN     MOCLDY    70  57  64 S8        29.94R
$$

TNZ083-085-099-190100-
SOUTHEAST TENNESSEE

CITY           SKY/WX    TMP DP  RH WIND       PRES   REMARKS
CHATTANOOGA    CLOUDY    73  62  68 CALM      29.92R
$$

SKY/WX REPORTED AS FAIR MEANS FEW OR NO CLOUDS BELOW
12 THOUSAND FEET.




USA.gov is the U.S. government's official web portal to all federal, state and local government web resources and services.